Hourly Data Report for October 12, 2016

All times are specified in Local Standard Time (LST). Add 1 hour to adjust for Daylight Saving Time where and when it is observed.

KITCHENER/WATERLOO
ONTARIO

43°27'39.000" N
80°22'43.000" W
321.60 m
6144239
71368
YKF

Download Data

Hourly Data (October 2016)
Hourly Data Report for October 12, 2016
Temp Definition
°C
Dew Point Temp Definition
°C
Rel Hum Definition
%
Wind Dir Definition
10's deg

Wind Spd Definition
km/h
Visibility Definition
km
Stn Press Definition
kPa
Hmdx Definition


Wind Chill Definition


Weather Definition


TIME
00:00 Legend Double Dagger 6.0 5.6 97   0 2.4 98.47     Fog
01:00 Legend Double Dagger 5.0 4.6 97 LegendMM 4 2.0 98.41     Rain,Fog
02:00 Legend Double Dagger 5.7 5.4 98 10 4 8.1 98.37     Fog
03:00 Legend Double Dagger 5.8 5.5 98   0 9.7 98.34     Fog
04:00 Legend Double Dagger 4.6 4.2 97 12 4 16.1 98.32     LegendNANA
05:00 Legend Double Dagger 4.5 4.1 97 11 5 11.3 98.30     LegendNANA
06:00 Legend Double Dagger 4.9 4.5 97 7 5 2.0 98.31     Fog
07:00 Legend Double Dagger 4.6 4.3 98 8 4 1.6 98.30     Fog
08:00 Legend Double Dagger 9.7 9.4 98   0 6.4 98.29     Fog
09:00 Legend Double Dagger 14.6 12.8 89 19 21 16.1 98.24     LegendNANA
10:00 Legend Double Dagger 17.4 13.2 76 20 22 16.1 98.18     LegendNANA
11:00 Legend Double Dagger 19.7 13.3 66 17 21 16.1 98.08     LegendNANA
12:00 Legend Double Dagger LegendMM LegendMM LegendMM LegendMM LegendMM 16.1 LegendMM     LegendNANA
13:00 Legend Double Dagger 22.3 12.0 52 21 28 16.1 97.91 25   LegendNANA
14:00 Legend Double Dagger 22.5 11.4 49 18 28 16.1 97.83     LegendNANA
15:00 Legend Double Dagger 20.7 10.4 51 19 21 16.1 97.81     LegendNANA
16:00 Legend Double Dagger 21.2 10.4 50 18 18 16.1 97.76     LegendNANA
17:00 Legend Double Dagger 19.7 10.3 54 18 17 16.1 97.73     LegendNANA
18:00 Legend Double Dagger 16.5 11.9 74 15 11 16.1 97.67     Rain
19:00 Legend Double Dagger 17.5 11.2 66 16 18 16.1 97.54     LegendNANA
20:00 Legend Double Dagger 18.1 11.0 63 18 26 16.1 97.54     LegendNANA
21:00 Legend Double Dagger 17.4 10.6 64 18 17 16.1 97.48     LegendNANA
22:00 Legend Double Dagger 18.2 10.3 59 18 22 16.1 97.42     LegendNANA
23:00 Legend Double Dagger 19.1 10.0 55 20 28 16.1 97.35     LegendNANA

Notes on Data Quality.

Legend

  • E = Estimated
  • M = Missing
  • NA = Not Available
  • ‡ = Partner data that is not subject to review by the National Climate Archives
Date modified: